Location: Moydans
(44.3997°N, 5.5038°E)
Time: 20:11:27
(UTC+02:00)

Envisat - Pass Details

Date: 04 October 2021
Orbit: 764 x 766 km, 98.2° (Epoch: 18 October)

Event Time Altitude Azimuth Distance (km) Brightness Sun altitude
Rises 05:23:25 0° 32° (NNE) 3,238 7.0 -24.8°
Reaches altitude 10° 05:27:00 10° 59° (ENE) 2,305 6.5 -24.2°
Maximum altitude 05:29:29 14° 88° (E) 2,058 6.1 -23.7°
Drops below altitude 10° 05:31:58 10° 118° (ESE) 2,296 6.0 -23.3°
Sets 05:35:30 0° 144° (SE) 3,216 6.5 -22.7°
